Year,Month,Day,Hour,Minute,Value (Times are PST for temperature in C)
2019,02,12,00,00,0.40
2019,02,12,00,01,0.40
2019,02,12,00,02,0.40
2019,02,12,00,03,0.40
2019,02,12,00,04,0.40
2019,02,12,00,05,0.40
2019,02,12,00,06,0.40
2019,02,12,00,07,0.40
2019,02,12,00,08,0.40
2019,02,12,00,09,0.40
2019,02,12,00,10,0.40
2019,02,12,00,11,0.40
2019,02,12,00,12,0.40
2019,02,12,00,13,0.40
2019,02,12,00,14,0.40
2019,02,12,00,15,0.40
2019,02,12,00,16,0.40
2019,02,12,00,17,0.40
2019,02,12,00,18,0.40
2019,02,12,00,19,0.40
2019,02,12,00,20,0.40
2019,02,12,00,21,0.40
2019,02,12,00,22,0.40
2019,02,12,00,23,0.40
2019,02,12,00,24,0.40
2019,02,12,00,25,0.40
2019,02,12,00,26,0.40
2019,02,12,00,27,0.40
2019,02,12,00,28,0.40
2019,02,12,00,29,0.40
2019,02,12,00,30,0.40
2019,02,12,00,31,0.40
2019,02,12,00,32,0.40
2019,02,12,00,33,0.40
2019,02,12,00,34,0.40
2019,02,12,00,35,0.40
2019,02,12,00,36,0.40
2019,02,12,00,37,0.40
2019,02,12,00,38,0.40
2019,02,12,00,39,0.40
2019,02,12,00,40,0.40
2019,02,12,00,41,0.40
2019,02,12,00,42,0.40
2019,02,12,00,43,0.40
2019,02,12,00,44,0.40
2019,02,12,00,45,0.40
2019,02,12,00,46,0.40
2019,02,12,00,47,0.40
2019,02,12,00,48,0.40
2019,02,12,00,49,0.40
2019,02,12,00,50,0.40
2019,02,12,00,51,0.40
2019,02,12,00,52,0.40
2019,02,12,00,53,0.40
2019,02,12,00,54,0.40
2019,02,12,00,55,0.40
2019,02,12,00,56,0.40
2019,02,12,00,57,0.40
2019,02,12,00,58,0.40
2019,02,12,00,59,0.40
2019,02,12,01,00,0.40
2019,02,12,01,01,0.40
2019,02,12,01,02,0.40
2019,02,12,01,03,0.40
2019,02,12,01,04,0.40
2019,02,12,01,05,0.40
2019,02,12,01,06,0.40
2019,02,12,01,07,0.40
2019,02,12,01,08,0.40
2019,02,12,01,09,0.40
2019,02,12,01,10,0.40
2019,02,12,01,11,0.40
2019,02,12,01,12,0.40
2019,02,12,01,13,0.40
2019,02,12,01,14,0.40
2019,02,12,01,15,0.40
2019,02,12,01,16,0.40
2019,02,12,01,17,0.40
2019,02,12,01,18,0.40
2019,02,12,01,19,0.40
2019,02,12,01,20,0.40
2019,02,12,01,21,0.40
2019,02,12,01,22,0.40
2019,02,12,01,23,0.40
2019,02,12,01,24,0.40
2019,02,12,01,25,0.40
2019,02,12,01,26,0.40
2019,02,12,01,27,0.30
2019,02,12,01,28,0.30
2019,02,12,01,29,0.30
2019,02,12,01,30,0.30
2019,02,12,01,31,0.30
2019,02,12,01,32,0.30
2019,02,12,01,33,0.30
2019,02,12,01,34,0.30
2019,02,12,01,35,0.30
2019,02,12,01,36,0.30
2019,02,12,01,37,0.30
2019,02,12,01,38,0.30
2019,02,12,01,39,0.30
2019,02,12,01,40,0.30
2019,02,12,01,41,0.30
2019,02,12,01,42,0.30
2019,02,12,01,43,0.30
2019,02,12,01,44,0.30
2019,02,12,01,45,0.30
2019,02,12,01,46,0.30
2019,02,12,01,47,0.30
2019,02,12,01,48,0.30
2019,02,12,01,49,0.30
2019,02,12,01,50,0.30
2019,02,12,01,51,0.30
2019,02,12,01,52,0.30
2019,02,12,01,53,0.30
2019,02,12,01,54,0.30
2019,02,12,01,55,0.30
2019,02,12,01,56,0.30
2019,02,12,01,57,0.30
2019,02,12,01,58,0.30
2019,02,12,01,59,0.30
2019,02,12,02,00,0.30
2019,02,12,02,01,0.30
2019,02,12,02,02,0.30
2019,02,12,02,03,0.30
2019,02,12,02,04,0.30
2019,02,12,02,05,0.40
2019,02,12,02,06,0.40
2019,02,12,02,07,0.40
2019,02,12,02,08,0.40
2019,02,12,02,09,0.40
2019,02,12,02,10,0.40
2019,02,12,02,11,0.40
2019,02,12,02,12,0.40
2019,02,12,02,13,0.40
2019,02,12,02,14,0.40
2019,02,12,02,15,0.40
2019,02,12,02,16,0.40
2019,02,12,02,17,0.40
2019,02,12,02,18,0.40
2019,02,12,02,19,0.40
2019,02,12,02,20,0.40
2019,02,12,09,14,0.40
2019,02,12,09,15,0.40
2019,02,12,09,16,0.40
2019,02,12,09,17,0.40
2019,02,12,09,18,0.40
2019,02,12,09,19,0.40
2019,02,12,09,20,0.40
2019,02,12,09,21,0.40
2019,02,12,09,22,0.40
2019,02,12,09,23,0.40
2019,02,12,09,24,0.40
2019,02,12,09,25,0.40
2019,02,12,09,26,0.40
2019,02,12,09,27,0.40
2019,02,12,09,28,0.40
2019,02,12,09,29,0.40
2019,02,12,09,30,0.40
2019,02,12,09,31,0.40
2019,02,12,09,32,0.40
2019,02,12,09,33,0.40
2019,02,12,09,34,0.40
2019,02,12,09,35,0.40
2019,02,12,09,36,0.40
2019,02,12,09,37,0.40
2019,02,12,09,38,0.40
2019,02,12,09,39,0.40
2019,02,12,09,40,0.40
2019,02,12,09,41,0.40
2019,02,12,09,42,0.40
2019,02,12,09,43,0.40
2019,02,12,09,44,0.40
2019,02,12,09,45,0.40
2019,02,12,09,46,0.40
2019,02,12,09,47,0.40
2019,02,12,09,48,0.40
2019,02,12,09,49,0.40
2019,02,12,09,50,0.40
2019,02,12,09,51,0.40
2019,02,12,09,52,0.40
2019,02,12,09,53,0.40
2019,02,12,09,54,0.40
2019,02,12,09,55,0.40
2019,02,12,09,56,0.40
2019,02,12,09,57,0.40
2019,02,12,09,58,0.40
2019,02,12,09,59,0.40
2019,02,12,10,00,0.40
2019,02,12,10,01,0.40
2019,02,12,10,02,0.40
2019,02,12,10,03,0.40
2019,02,12,10,04,0.40
2019,02,12,10,05,0.40
2019,02,12,10,06,0.40
2019,02,12,10,07,0.40
2019,02,12,10,08,0.40
2019,02,12,10,09,0.40
2019,02,12,10,10,0.40
2019,02,12,10,11,0.40
2019,02,12,10,12,0.40
2019,02,12,10,13,0.40
2019,02,12,10,14,0.40
2019,02,12,10,15,0.40
2019,02,12,10,16,0.40
2019,02,12,10,17,0.40
2019,02,12,10,18,0.40
2019,02,12,10,19,0.40
2019,02,12,10,20,0.40
2019,02,12,10,21,0.50
2019,02,12,10,22,0.50
2019,02,12,10,23,0.50
2019,02,12,10,24,0.50
2019,02,12,10,25,0.50
2019,02,12,10,26,0.50
2019,02,12,10,27,0.50
2019,02,12,10,28,0.50
2019,02,12,10,29,0.60
2019,02,12,10,30,0.60
2019,02,12,10,31,0.60
2019,02,12,10,32,0.60
2019,02,12,10,33,0.50
2019,02,12,10,34,0.60
2019,02,12,10,35,0.60
2019,02,12,10,36,0.60
2019,02,12,10,37,0.60
2019,02,12,10,38,0.60
2019,02,12,10,39,0.60
2019,02,12,10,40,0.60
2019,02,12,10,41,0.60
2019,02,12,10,42,0.50
2019,02,12,10,43,0.50
2019,02,12,10,44,0.50
2019,02,12,10,45,0.50
2019,02,12,10,46,0.50
2019,02,12,10,47,0.50
2019,02,12,10,48,0.50
2019,02,12,10,49,0.50
2019,02,12,10,50,0.50
2019,02,12,10,51,0.50
2019,02,12,10,52,0.50
2019,02,12,10,53,0.40
2019,02,12,10,54,0.40
2019,02,12,10,55,0.40
2019,02,12,10,56,0.50
2019,02,12,10,57,0.40
2019,02,12,10,58,0.50
2019,02,12,10,59,0.50
2019,02,12,11,00,0.50
2019,02,12,11,01,0.50
2019,02,12,11,02,0.50
2019,02,12,11,03,0.50
2019,02,12,11,04,0.50
2019,02,12,11,05,0.50
2019,02,12,11,06,0.40
2019,02,12,11,07,0.40
2019,02,12,11,08,0.40
2019,02,12,11,09,0.40
2019,02,12,11,10,0.50
2019,02,12,11,11,0.40
2019,02,12,11,12,0.40
2019,02,12,11,13,0.50
2019,02,12,11,14,0.50
2019,02,12,11,15,0.50
2019,02,12,11,16,0.50
2019,02,12,11,17,0.50
2019,02,12,11,18,0.50
2019,02,12,11,19,0.50
2019,02,12,11,20,0.50
2019,02,12,11,21,0.50
2019,02,12,11,22,0.50
2019,02,12,11,23,0.50
2019,02,12,11,24,0.50
2019,02,12,11,25,0.50
2019,02,12,11,26,0.50
2019,02,12,11,27,0.50
2019,02,12,11,28,0.50
2019,02,12,11,29,0.50
2019,02,12,11,30,0.50
2019,02,12,11,31,0.50
2019,02,12,11,32,0.50
2019,02,12,11,33,0.50
2019,02,12,11,34,0.50
2019,02,12,11,35,0.50
2019,02,12,11,36,0.50
2019,02,12,11,37,0.50
2019,02,12,11,38,0.50
2019,02,12,11,39,0.50
2019,02,12,11,40,0.50
2019,02,12,11,41,0.60
2019,02,12,11,42,0.60
2019,02,12,11,43,0.60
2019,02,12,11,44,0.60
2019,02,12,11,45,0.60
2019,02,12,11,46,0.60
2019,02,12,11,47,0.60
2019,02,12,11,48,0.60
2019,02,12,11,49,0.60
2019,02,12,11,50,0.60
2019,02,12,11,51,0.60
2019,02,12,11,52,0.60
2019,02,12,11,53,0.60
2019,02,12,11,54,0.60
2019,02,12,11,55,0.60
2019,02,12,11,56,0.60
2019,02,12,11,57,0.60
2019,02,12,11,58,0.60
2019,02,12,11,59,0.60
2019,02,12,12,00,0.60
2019,02,12,12,01,0.60
2019,02,12,12,02,0.60
2019,02,12,12,03,0.60
2019,02,12,12,04,0.60
2019,02,12,12,05,0.60
2019,02,12,12,06,0.60
2019,02,12,12,07,0.60
2019,02,12,12,08,0.50
2019,02,12,12,09,0.50
2019,02,12,12,10,0.50
2019,02,12,12,11,0.50
2019,02,12,12,12,0.50
2019,02,12,12,13,0.50
2019,02,12,12,14,0.50
2019,02,12,12,15,0.50
2019,02,12,12,16,0.50
2019,02,12,12,17,0.60
2019,02,12,12,18,0.60
2019,02,12,12,19,0.60
2019,02,12,12,20,0.60
2019,02,12,12,21,0.60
2019,02,12,12,22,0.60
2019,02,12,12,23,0.60
2019,02,12,12,24,0.60
2019,02,12,12,25,0.60
2019,02,12,12,26,0.60
2019,02,12,12,27,0.60
2019,02,12,12,28,0.60
2019,02,12,12,29,0.60
2019,02,12,12,30,0.60
2019,02,12,12,31,0.60
2019,02,12,12,32,0.60
2019,02,12,12,33,0.60
2019,02,12,12,34,0.60
2019,02,12,12,35,0.60
2019,02,12,12,36,0.60
2019,02,12,12,37,0.60
2019,02,12,12,38,0.60
2019,02,12,12,39,0.70
2019,02,12,12,40,0.70
2019,02,12,12,41,0.70
2019,02,12,12,42,0.70
2019,02,12,12,43,0.70
2019,02,12,12,44,0.70
2019,02,12,12,45,0.70
2019,02,12,12,46,0.60
2019,02,12,12,47,0.60
2019,02,12,12,48,0.60
2019,02,12,12,49,0.60
2019,02,12,12,50,0.60
2019,02,12,12,51,0.60
2019,02,12,12,52,0.60
2019,02,12,12,53,0.70
2019,02,12,12,54,0.60
2019,02,12,12,55,0.70
2019,02,12,12,56,0.70
2019,02,12,12,57,0.70
2019,02,12,12,58,0.70
2019,02,12,12,59,0.70
2019,02,12,13,00,0.70
2019,02,12,13,01,0.70
2019,02,12,13,02,0.70
2019,02,12,13,03,0.70
2019,02,12,13,04,0.70
2019,02,12,13,05,0.70
2019,02,12,13,06,0.70
2019,02,12,13,07,0.70
2019,02,12,13,08,0.70
2019,02,12,13,09,0.70
2019,02,12,13,10,0.70
2019,02,12,13,11,0.70
2019,02,12,13,12,0.70
2019,02,12,13,13,0.70
2019,02,12,13,14,0.70
2019,02,12,13,15,0.70
2019,02,12,13,16,0.70
2019,02,12,13,17,0.70
2019,02,12,13,18,0.70
2019,02,12,13,19,0.60
2019,02,12,13,20,0.60
2019,02,12,13,21,0.60
2019,02,12,13,22,0.60
2019,02,12,13,23,0.60
2019,02,12,13,24,0.60
2019,02,12,13,25,0.60
2019,02,12,13,26,0.60
2019,02,12,13,27,0.60
2019,02,12,13,28,0.60
2019,02,12,13,29,0.60
2019,02,12,13,30,0.60
2019,02,12,13,31,0.60
2019,02,12,13,32,0.60
2019,02,12,13,33,0.60
2019,02,12,13,34,0.60
2019,02,12,13,35,0.60
2019,02,12,13,36,0.60
2019,02,12,13,37,0.60
2019,02,12,13,38,0.60
2019,02,12,13,39,0.60
2019,02,12,13,40,0.60
2019,02,12,13,41,0.60
2019,02,12,13,42,0.60
2019,02,12,13,43,0.60
2019,02,12,13,44,0.60
2019,02,12,13,45,0.60
2019,02,12,13,46,0.60
2019,02,12,13,47,0.60
2019,02,12,13,48,0.60
2019,02,12,13,49,0.70
2019,02,12,13,50,0.60
2019,02,12,13,51,0.60
2019,02,12,13,52,0.60
2019,02,12,13,53,0.60
2019,02,12,13,54,0.60
2019,02,12,13,55,0.70
2019,02,12,13,56,0.70
2019,02,12,13,57,0.70
2019,02,12,13,58,0.70
2019,02,12,13,59,0.70
2019,02,12,14,00,0.70
2019,02,12,14,01,0.70
2019,02,12,14,02,0.60
2019,02,12,14,03,0.60
2019,02,12,14,04,0.60
2019,02,12,14,05,0.60
2019,02,12,14,06,0.60
2019,02,12,14,07,0.60
2019,02,12,14,08,0.60
2019,02,12,14,09,0.60
2019,02,12,14,10,0.60
2019,02,12,14,11,0.60
2019,02,12,14,12,0.60
2019,02,12,14,13,0.60
2019,02,12,14,14,0.60
2019,02,12,14,15,0.60
2019,02,12,14,16,0.60
2019,02,12,14,17,0.60
2019,02,12,14,18,0.60
2019,02,12,14,19,0.60
2019,02,12,14,20,0.60
2019,02,12,14,21,0.60
2019,02,12,14,22,0.60
2019,02,12,14,23,0.60
2019,02,12,14,24,0.60
2019,02,12,14,25,0.60
2019,02,12,14,26,0.60
2019,02,12,14,27,0.60
2019,02,12,14,28,0.60
2019,02,12,14,29,0.60
2019,02,12,14,30,0.70
2019,02,12,14,31,0.70
2019,02,12,14,32,0.70
2019,02,12,14,33,0.70
2019,02,12,14,34,0.70
2019,02,12,14,35,0.70
2019,02,12,14,36,0.70
2019,02,12,14,37,0.70
2019,02,12,14,38,0.70
2019,02,12,14,39,0.70
2019,02,12,14,40,0.70
2019,02,12,14,41,0.70
2019,02,12,14,42,0.70
2019,02,12,14,43,0.70
2019,02,12,14,44,0.70
2019,02,12,14,45,0.70
2019,02,12,14,46,0.70
2019,02,12,14,47,0.70
2019,02,12,14,48,0.70
2019,02,12,14,49,0.70
2019,02,12,14,50,0.70
2019,02,12,14,51,0.70
2019,02,12,14,52,0.80
2019,02,12,14,53,0.80
2019,02,12,14,54,0.80
2019,02,12,14,55,0.80
2019,02,12,14,56,0.80
2019,02,12,14,57,0.80
2019,02,12,14,58,0.80
2019,02,12,14,59,0.80
2019,02,12,15,00,0.80
2019,02,12,15,01,0.80
2019,02,12,15,02,0.80
2019,02,12,15,03,0.80
2019,02,12,15,04,0.80
2019,02,12,15,05,0.80
2019,02,12,15,06,0.80
2019,02,12,15,07,0.80
2019,02,12,15,08,0.80
2019,02,12,15,09,0.80
2019,02,12,15,10,0.80
2019,02,12,15,11,0.80
2019,02,12,15,12,0.80
2019,02,12,15,13,0.80
2019,02,12,15,14,0.80
2019,02,12,15,15,0.80
2019,02,12,15,16,0.90
2019,02,12,15,17,0.90
2019,02,12,15,18,0.90
2019,02,12,15,19,0.90
2019,02,12,15,20,0.90
2019,02,12,15,21,0.90
2019,02,12,15,22,0.90
2019,02,12,15,23,0.90
2019,02,12,15,24,0.90
2019,02,12,15,25,0.90
2019,02,12,15,26,0.80
2019,02,12,15,27,0.80
2019,02,12,15,28,0.80
2019,02,12,15,29,0.80
2019,02,12,15,30,0.80
2019,02,12,15,31,0.80
2019,02,12,15,32,0.80
2019,02,12,15,33,0.80
2019,02,12,15,34,0.80
2019,02,12,15,35,0.80
2019,02,12,15,36,0.80
2019,02,12,15,37,0.80
2019,02,12,15,38,0.80
2019,02,12,15,39,0.80
2019,02,12,15,40,0.80
2019,02,12,15,41,0.80
2019,02,12,15,42,0.80
2019,02,12,15,43,0.80
2019,02,12,15,44,0.80
2019,02,12,15,45,0.80
2019,02,12,15,46,0.80
2019,02,12,15,47,0.80
2019,02,12,15,48,0.80
2019,02,12,15,49,0.80
2019,02,12,15,50,0.80
2019,02,12,15,51,0.80
2019,02,12,15,52,0.80
2019,02,12,15,53,0.80
2019,02,12,15,54,0.80
2019,02,12,15,55,0.80
2019,02,12,15,56,0.80
2019,02,12,15,57,0.80
2019,02,12,15,58,0.80
2019,02,12,15,59,0.80
2019,02,12,16,00,0.80
2019,02,12,16,01,0.80
2019,02,12,16,02,0.80
2019,02,12,16,03,0.80
2019,02,12,16,04,0.80
2019,02,12,16,05,0.80
2019,02,12,16,06,0.80
2019,02,12,16,07,0.90
2019,02,12,16,08,0.90
2019,02,12,16,09,0.90
2019,02,12,16,10,0.90
2019,02,12,16,11,0.90
2019,02,12,16,12,0.90
2019,02,12,16,13,0.90
2019,02,12,16,14,0.90
2019,02,12,16,15,0.90
2019,02,12,16,16,0.90
2019,02,12,16,17,0.90
2019,02,12,16,18,0.90
2019,02,12,16,19,0.90
2019,02,12,16,20,0.90
2019,02,12,16,21,0.90
2019,02,12,16,22,0.90
2019,02,12,16,23,0.90
2019,02,12,16,24,1.00
2019,02,12,16,25,0.90
2019,02,12,16,26,1.00
2019,02,12,16,27,1.00
2019,02,12,16,28,0.90
2019,02,12,16,29,0.90
2019,02,12,16,30,0.90
2019,02,12,16,31,0.90
2019,02,12,16,32,0.90
2019,02,12,16,33,0.90
2019,02,12,16,34,0.90
2019,02,12,16,35,0.90
2019,02,12,16,36,0.90
2019,02,12,16,37,0.90
2019,02,12,16,38,0.90
2019,02,12,16,39,1.00
2019,02,12,16,40,1.00
2019,02,12,16,41,1.00
2019,02,12,16,42,1.00
2019,02,12,16,43,1.00
2019,02,12,16,44,1.00
2019,02,12,16,45,1.00
2019,02,12,16,46,1.00
2019,02,12,16,47,1.00
2019,02,12,16,48,1.00
2019,02,12,16,49,1.00
2019,02,12,16,50,1.00
2019,02,12,16,51,1.00
2019,02,12,16,52,1.00
2019,02,12,16,53,1.00
2019,02,12,16,54,1.00
2019,02,12,16,55,1.00
2019,02,12,16,56,1.00
2019,02,12,16,57,1.00
2019,02,12,16,58,1.00
2019,02,12,16,59,1.00
2019,02,12,17,00,1.00
2019,02,12,17,01,1.10
2019,02,12,17,02,1.10
2019,02,12,17,03,1.00
2019,02,12,17,04,1.10
2019,02,12,17,05,1.10
2019,02,12,17,06,1.00
2019,02,12,17,07,1.10
2019,02,12,17,08,1.10
2019,02,12,17,09,1.10
2019,02,12,17,10,1.10
2019,02,12,17,11,1.10
2019,02,12,17,12,1.10
2019,02,12,17,13,1.10
2019,02,12,17,14,1.10
2019,02,12,17,15,1.10
2019,02,12,17,16,1.10
2019,02,12,17,17,1.10
2019,02,12,17,18,1.10
2019,02,12,17,19,1.10
2019,02,12,17,20,1.10
2019,02,12,17,21,1.10
2019,02,12,17,22,1.10
2019,02,12,17,23,1.10
2019,02,12,17,24,1.10
2019,02,12,17,25,1.10
2019,02,12,17,26,1.10
2019,02,12,17,27,1.10
2019,02,12,17,28,1.10
2019,02,12,17,29,1.10
2019,02,12,17,30,1.10
2019,02,12,17,31,1.10
2019,02,12,17,32,1.10
2019,02,12,17,33,1.10
2019,02,12,17,34,1.10
2019,02,12,17,35,1.10
2019,02,12,17,36,1.10
2019,02,12,17,37,1.10
2019,02,12,17,38,1.00
2019,02,12,17,39,1.00
2019,02,12,17,40,1.00
2019,02,12,17,41,1.00
2019,02,12,17,42,1.00
2019,02,12,17,43,1.00
2019,02,12,17,44,1.00
2019,02,12,17,45,1.00
2019,02,12,17,46,1.00
2019,02,12,17,47,1.00
2019,02,12,17,48,1.00
2019,02,12,17,49,1.00
2019,02,12,17,50,1.00
2019,02,12,17,51,1.00
2019,02,12,17,52,1.10
2019,02,12,17,53,1.10
2019,02,12,17,54,1.10
2019,02,12,17,55,1.10
2019,02,12,17,56,1.10
2019,02,12,17,57,1.10
2019,02,12,17,58,1.10
2019,02,12,17,59,1.10
2019,02,12,18,00,1.10
2019,02,12,18,01,1.10
2019,02,12,18,02,1.10
2019,02,12,18,03,1.10
2019,02,12,18,04,1.10
2019,02,12,18,05,1.10
2019,02,12,18,06,1.10
2019,02,12,18,07,1.10
2019,02,12,18,08,1.10
2019,02,12,18,09,1.10
2019,02,12,18,10,1.10
2019,02,12,18,11,1.10
2019,02,12,18,12,1.10
2019,02,12,18,13,1.10
2019,02,12,18,14,1.10
2019,02,12,18,15,1.10
2019,02,12,18,16,1.10
2019,02,12,18,17,1.10
2019,02,12,18,18,1.10
2019,02,12,18,19,1.10
2019,02,12,18,20,1.10
2019,02,12,18,21,1.10
2019,02,12,18,22,1.10
2019,02,12,18,23,1.10
2019,02,12,18,24,1.10
2019,02,12,18,25,1.10
2019,02,12,18,26,1.10
2019,02,12,18,27,1.10
2019,02,12,18,28,1.10
2019,02,12,18,29,1.10
2019,02,12,18,30,1.10
2019,02,12,18,31,1.10
2019,02,12,18,32,1.10
2019,02,12,18,33,1.10
2019,02,12,18,34,1.10
2019,02,12,18,35,1.10
2019,02,12,18,36,1.10
2019,02,12,18,37,1.10
2019,02,12,18,38,1.10
2019,02,12,18,39,1.10
2019,02,12,18,40,1.10
2019,02,12,18,41,1.10
2019,02,12,18,42,1.10
2019,02,12,18,43,1.10
2019,02,12,18,44,1.10
2019,02,12,18,45,1.10
2019,02,12,18,46,1.10
2019,02,12,18,47,1.10
2019,02,12,18,48,1.10
2019,02,12,18,49,1.10
2019,02,12,18,50,1.10
2019,02,12,18,51,1.10
2019,02,12,18,52,1.10
2019,02,12,18,53,1.10
2019,02,12,18,54,1.10
2019,02,12,18,55,1.10
2019,02,12,18,56,1.10
2019,02,12,18,57,1.00
2019,02,12,18,58,1.00
2019,02,12,18,59,1.00
2019,02,12,19,00,1.00
2019,02,12,19,01,1.00
2019,02,12,19,02,1.00
2019,02,12,19,03,1.00
2019,02,12,19,04,1.00
2019,02,12,19,05,1.00
2019,02,12,19,06,1.00
2019,02,12,19,07,1.00
2019,02,12,19,08,1.00
2019,02,12,19,09,1.00
2019,02,12,19,10,1.00
2019,02,12,19,11,1.00
2019,02,12,19,12,1.00
2019,02,12,19,13,1.00
2019,02,12,19,14,1.00
2019,02,12,19,15,1.00
2019,02,12,19,16,1.00
2019,02,12,19,17,1.00
2019,02,12,19,18,1.00
2019,02,12,19,19,1.00
2019,02,12,19,20,1.00
2019,02,12,19,21,1.00
2019,02,12,19,22,1.00
2019,02,12,19,23,1.00
2019,02,12,19,24,1.00
2019,02,12,19,25,1.00
2019,02,12,19,26,1.00
2019,02,12,19,27,0.90
2019,02,12,19,28,0.90
2019,02,12,19,29,0.90
2019,02,12,19,30,0.90
2019,02,12,19,31,0.90
2019,02,12,19,32,0.90
2019,02,12,19,33,0.90
2019,02,12,19,34,0.90
2019,02,12,19,35,0.90
2019,02,12,19,36,0.90
2019,02,12,19,37,0.90
2019,02,12,19,38,0.90
2019,02,12,19,39,0.90
2019,02,12,19,40,0.90
2019,02,12,19,41,0.90
2019,02,12,19,42,0.90
2019,02,12,19,43,0.90
2019,02,12,19,44,0.90
2019,02,12,19,45,0.90
2019,02,12,19,46,0.90
2019,02,12,19,47,0.90
2019,02,12,19,48,0.90
2019,02,12,19,49,0.90
2019,02,12,19,50,0.90
2019,02,12,19,51,0.90
2019,02,12,19,52,0.90
2019,02,12,19,53,0.90
2019,02,12,19,54,0.90
2019,02,12,19,55,0.90
2019,02,12,19,56,0.90
2019,02,12,19,57,0.90
2019,02,12,19,58,0.90
2019,02,12,19,59,0.90
2019,02,12,20,00,0.90
2019,02,12,20,01,0.90
2019,02,12,20,02,0.90
2019,02,12,20,03,0.90
2019,02,12,20,04,0.90
2019,02,12,20,05,0.90
2019,02,12,20,06,0.90
2019,02,12,20,07,0.90
2019,02,12,20,08,0.90
2019,02,12,20,09,0.90
2019,02,12,20,10,0.90
2019,02,12,20,11,0.90
2019,02,12,20,12,0.90
2019,02,12,20,13,0.90
2019,02,12,20,14,0.80
2019,02,12,20,15,0.80
2019,02,12,20,16,0.90
2019,02,12,20,17,0.90
2019,02,12,20,18,0.90
2019,02,12,20,19,0.80
2019,02,12,20,20,0.90
2019,02,12,20,21,0.90
2019,02,12,20,22,0.90
2019,02,12,20,23,0.90
2019,02,12,20,24,0.80
2019,02,12,20,25,0.80
2019,02,12,20,26,0.80
2019,02,12,20,27,0.80
2019,02,12,20,28,0.80
2019,02,12,20,29,0.80
2019,02,12,20,30,0.80
2019,02,12,20,31,0.80
2019,02,12,20,32,0.80
2019,02,12,20,33,0.80
2019,02,12,20,34,0.80
2019,02,12,20,35,0.80
2019,02,12,20,36,0.80
2019,02,12,20,37,0.80
2019,02,12,20,38,0.80
2019,02,12,20,39,0.80
2019,02,12,20,40,0.80
2019,02,12,20,41,0.80
2019,02,12,20,42,0.80
2019,02,12,20,43,0.80
2019,02,12,20,44,0.80
2019,02,12,20,45,0.80
2019,02,12,20,46,0.80
2019,02,12,20,47,0.80
2019,02,12,20,48,0.70
2019,02,12,20,49,0.70
2019,02,12,20,50,0.70
2019,02,12,20,51,0.70
2019,02,12,20,52,0.70
2019,02,12,20,53,0.70
2019,02,12,20,54,0.70
2019,02,12,20,55,0.70
2019,02,12,20,56,0.70
2019,02,12,20,57,0.70
2019,02,12,20,58,0.70
2019,02,12,20,59,0.70
2019,02,12,21,00,0.70
2019,02,12,21,01,0.70
2019,02,12,21,02,0.70
2019,02,12,21,03,0.70
2019,02,12,21,04,0.70
2019,02,12,21,05,0.70
2019,02,12,21,06,0.70
2019,02,12,21,07,0.70
2019,02,12,21,08,0.70
2019,02,12,21,09,0.70
2019,02,12,21,10,0.70
2019,02,12,21,11,0.70
2019,02,12,21,12,0.70
2019,02,12,21,13,0.70
2019,02,12,21,14,0.70
2019,02,12,21,15,0.70
2019,02,12,21,16,0.70
2019,02,12,21,17,0.70
2019,02,12,21,18,0.70
2019,02,12,21,19,0.70
2019,02,12,21,20,0.70
2019,02,12,21,21,0.70
2019,02,12,21,22,0.70
2019,02,12,21,23,0.70
2019,02,12,21,24,0.70
2019,02,12,21,25,0.70
2019,02,12,21,26,0.70
2019,02,12,21,27,0.70
2019,02,12,21,28,0.70
2019,02,12,21,29,0.70
2019,02,12,21,30,0.70
2019,02,12,21,31,0.70
2019,02,12,21,32,0.70
2019,02,12,21,33,0.70
2019,02,12,21,34,0.70
2019,02,12,21,35,0.70
2019,02,12,21,36,0.70
2019,02,12,21,37,0.70
2019,02,12,21,38,0.70
2019,02,12,21,39,0.70
2019,02,12,21,40,0.70
2019,02,12,21,41,0.70
2019,02,12,21,42,0.70
2019,02,12,21,43,0.70
2019,02,12,21,44,0.70
2019,02,12,21,45,0.70
2019,02,12,21,46,0.70
2019,02,12,21,47,0.70
2019,02,12,21,48,0.70
2019,02,12,21,49,0.70
2019,02,12,21,50,0.70
2019,02,12,21,51,0.70
2019,02,12,21,52,0.70
2019,02,12,21,53,0.70
2019,02,12,21,54,0.70
2019,02,12,21,55,0.70
2019,02,12,21,56,0.70
2019,02,12,21,57,0.70
2019,02,12,21,58,0.70
2019,02,12,21,59,0.70
2019,02,12,22,00,0.70
2019,02,12,22,01,0.70
2019,02,12,22,02,0.70
2019,02,12,22,03,0.70
2019,02,12,22,04,0.70
2019,02,12,22,05,0.70
2019,02,12,22,06,0.70
2019,02,12,22,07,0.70
2019,02,12,22,08,0.70
2019,02,12,22,09,0.70
2019,02,12,22,10,0.70
2019,02,12,22,11,0.70
2019,02,12,22,12,0.70
2019,02,12,22,13,0.60
2019,02,12,22,14,0.60
2019,02,12,22,15,0.60
2019,02,12,22,16,0.60
2019,02,12,22,17,0.60
2019,02,12,22,18,0.60
2019,02,12,22,19,0.60
2019,02,12,22,20,0.60
2019,02,12,22,21,0.60
2019,02,12,22,22,0.60
2019,02,12,22,23,0.60
2019,02,12,22,24,0.60
2019,02,12,22,25,0.60
2019,02,12,22,26,0.60
2019,02,12,22,27,0.60
2019,02,12,22,28,0.60
2019,02,12,22,29,0.60
2019,02,12,22,30,0.60
2019,02,12,22,31,0.60
2019,02,12,22,32,0.60
2019,02,12,22,33,0.60
2019,02,12,22,34,0.60
2019,02,12,22,35,0.60
2019,02,12,22,36,0.60
2019,02,12,22,37,0.60
2019,02,12,22,38,0.60
2019,02,12,22,39,0.60
2019,02,12,22,40,0.60
2019,02,12,22,41,0.60
2019,02,12,22,42,0.60
2019,02,12,22,43,0.70
2019,02,12,22,44,0.70
2019,02,12,22,45,0.60
2019,02,12,22,46,0.70
2019,02,12,22,47,0.60
2019,02,12,22,48,0.70
2019,02,12,22,49,0.70
2019,02,12,22,50,0.70
2019,02,12,22,51,0.70
2019,02,12,22,52,0.70
2019,02,12,22,53,0.70
2019,02,12,22,54,0.70
2019,02,12,22,55,0.70
2019,02,12,22,56,0.70
2019,02,12,22,57,0.70
2019,02,12,22,58,0.70
2019,02,12,22,59,0.70
2019,02,12,23,00,0.70
2019,02,12,23,01,0.70
2019,02,12,23,02,0.70
2019,02,12,23,03,0.80
2019,02,12,23,04,0.80
2019,02,12,23,05,0.80
2019,02,12,23,06,0.80
2019,02,12,23,07,0.80
2019,02,12,23,08,0.80
2019,02,12,23,09,0.80
2019,02,12,23,10,0.80
2019,02,12,23,11,0.80
2019,02,12,23,12,0.80
2019,02,12,23,13,0.80
2019,02,12,23,14,0.80
2019,02,12,23,15,0.80
2019,02,12,23,16,0.80
2019,02,12,23,17,0.80
2019,02,12,23,18,0.80
2019,02,12,23,19,0.80
2019,02,12,23,20,0.80
2019,02,12,23,21,0.80
2019,02,12,23,22,0.80
2019,02,12,23,23,0.80
2019,02,12,23,24,0.80
2019,02,12,23,25,0.80
2019,02,12,23,26,0.80
2019,02,12,23,27,0.80
2019,02,12,23,28,0.80
2019,02,12,23,29,0.80
2019,02,12,23,30,0.80
2019,02,12,23,31,0.80
2019,02,12,23,32,0.80
2019,02,12,23,33,0.80
2019,02,12,23,34,0.80
2019,02,12,23,35,0.80
2019,02,12,23,36,0.80
2019,02,12,23,37,0.80
2019,02,12,23,38,0.80
2019,02,12,23,39,0.80
2019,02,12,23,40,0.90
2019,02,12,23,41,0.90
2019,02,12,23,42,0.90
2019,02,12,23,43,0.90
2019,02,12,23,44,0.90
2019,02,12,23,45,0.90
2019,02,12,23,46,0.90
2019,02,12,23,47,0.90
2019,02,12,23,48,0.90
2019,02,12,23,49,0.90
2019,02,12,23,50,0.90
2019,02,12,23,51,0.90
2019,02,12,23,52,0.90
2019,02,12,23,53,0.90
2019,02,12,23,54,0.90
2019,02,12,23,55,1.00
2019,02,12,23,56,0.90
2019,02,12,23,57,1.00
2019,02,12,23,58,1.00
2019,02,12,23,59,1.00
